Weather observations for the past three days for
Jacksonville Craig Municipal Airport
Imperial (Metric)
Date Time (edt) Wind (mph) Vis. (mi.) Weather Sky Cond. Temperature (ºF) Relative Humidity Wind Chill (°F) Heat Index (°F) Pressure Precipitation (in)
Air Dwpt 6 hour altimeter (in) sea level (mb) 1 hr 3 hr 6 hr
Max. Min.
15 03:53 SW 5 10.00 Fair CLR 79 73 82% 82 30.06 1017.8
15 02:53 Calm 10.00 Fair CLR 79 73.9 85% 83 30.07 1018.1
15 01:53 SW 5 10.00 Fair CLR 79 73 84 79 82% 82 30.1 1019.1
15 00:53 S 5 10.00 Fair CLR 79 73 82% 82 30.11 1019.5
14 23:53 S 7 10.00 Fair CLR 80.1 72 76% 84 30.1 1019.3
14 22:53 SW 9 10.00 Fair CLR 81 72 74% 85 30.11 1019.4
14 21:53 SW 9 10.00 Fair CLR 82 73.9 77% 88 30.11 1019.5
14 20:53 S 6 10.00 Fair CLR 82.9 73 72% 89 30.1 1019.1
14 19:53 S 10 10.00 Fair CLR 84 73.9 93 82 72% 91 30.09 1018.8
14 18:53 S 13 10.00 Partly Cloudy SCT110 88 75.9 68% 99 30.06 1018.0
14 17:53 Vrbl 3 10.00 A Few Clouds FEW100 86 73.9 67% 94 30.07 1018.1
14 16:53 W 7 10.00 Thunderstorm FEW055 SCT080 BKN100 82 75 79% 89 30.09 1018.8
14 15:53 NW 16 G 23 10.00 Thunderstorm FEW075 BKN090 BKN110 84.9 73 68% 92 30.09 1018.8
14 14:53 SE 7 10.00 Fair CLR 93 75 56% 104 30.11 1019.5
14 13:53 E 5 10.00 Overcast OVC090 89.1 75 93 82 63% 99 30.12 1020.0
14 12:53 E 5 10.00 Partly Cloudy SCT049 91.9 73 54% 101 30.14 1020.6
14 11:53 NW 7 10.00 A Few Clouds FEW045 91.9 73 54% 101 30.15 1021.0
14 10:53 N 5 10.00 Fair CLR 90 73.9 59% 99 30.15 1020.8
14 09:53 NW 3 10.00 Fair CLR 88 73.9 63% 97 30.15 1020.9
14 08:53 W 7 10.00 Fair CLR 84.9 75 72% 93 30.14 1020.7
14 07:53 W 7 10.00 Fair CLR 82 75.9 82 79 82% 89 30.15 1020.9
14 06:53 SW 6 10.00 Partly Cloudy FEW090 SCT110 80.1 75.9 87% 85 30.15 1020.7
14 05:53 SW 6 10.00 Overcast OVC100 80.1 75.9 87% 85 30.13 1020.2
14 04:53 SW 9 10.00 Overcast OVC100 80.1 75.9 87% 85 30.12 1020.0
14 03:53 S 8 10.00 Fair CLR 79 75 88% 83 30.13 1020.1
14 02:53 S 8 10.00 Overcast BKN100 OVC120 79 73.9 85% 83 30.14 1020.6
14 01:53 S 8 10.00 Partly Cloudy FEW100 SCT120 80.1 73 88 79 79% 84 30.16 1021.1
14 00:53 S 5 10.00 A Few Clouds FEW100 80.1 73.9 82% 85 30.16 1021.2
13 23:53 S 6 10.00 A Few Clouds FEW070 82.9 73 72% 89 30.16 1021.1
13 22:53 SE 5 10.00 A Few Clouds FEW070 82.9 73.9 74% 89 30.15 1020.9
13 21:53 S 8 10.00 Partly Cloudy SCT110 86 72 63% 92 30.15 1020.9
13 20:53 S 8 10.00 A Few Clouds FEW075 87.1 73.9 65% 95 30.15 1021.0
13 19:53 SE 9 10.00 Fair CLR 88 73.9 93.9 88 63% 97 30.14 1020.5
13 18:53 SE 10 10.00 Fair CLR 90 73 58% 98 30.12 1020.0
13 17:53 SE 8 10.00 A Few Clouds FEW002 93 71.1 49% 100 30.11 1019.7
13 16:53 SE 10 10.00 A Few Clouds FEW100 93 71.1 49% 100 30.12 1019.8
13 15:53 SE 15 G 21 10.00 A Few Clouds FEW100 93 73 52% 102 30.13 1020.1
13 14:53 SE 12 10.00 Mostly Cloudy BKN100 91.9 72 52% 100 30.14 1020.7
13 13:53 SE 10 10.00 Partly Cloudy FEW065 SCT080 91.9 73.9 95 82 56% 102 30.16 1021.2
13 12:53 N 8 10.00 Partly Cloudy SCT065 95 69.1 43% 101 30.17 1021.6
13 10:53 NW 6 10.00 Partly Cloudy SCT090 91 71.1 52% 98 30.18 1021.9
13 09:53 N 6 10.00 Fair CLR 89.1 71.1 55% 95 30.17 1021.6
13 08:53 W 6 10.00 A Few Clouds FEW090 84.9 72 65% 91 30.16 1021.2
13 07:53 NW 5 10.00 Fair CLR 82 73.9 82.9 79 77% 88 30.15 1021.0
13 06:53 Calm 10.00 Fair CLR 80.1 73 79% 84 30.13 1020.3
13 05:53 NW 3 10.00 Fair CLR 79 73 82% 82 30.11 1019.5
13 03:53 W 6 10.00 Fair CLR 82 73 74% 87 30.09 1018.7
13 02:53 W 5 10.00 Fair CLR 82.9 73.9 74% 89 30.09 1018.7
13 01:53 SW 5 10.00 Fair CLR 81 75 88 81 82% 87 30.09 1019.0
13 00:53 Calm 10.00 Overcast OVC080 82 75.9 82% 89 30.1 1019.3
12 23:53 SE 3 10.00 Fair CLR 82 75.9 82% 89 30.1 1019.3
12 22:53 S 7 10.00 A Few Clouds FEW100 84 75.9 77% 93 30.1 1019.2
12 21:53 S 8 10.00 Overcast OVC100 84.9 73.9 70% 92 30.09 1018.7
12 20:53 S 9 10.00 Overcast OVC090 86 72 63% 92 30.07 1018.3
12 19:53 SE 7 10.00 Overcast SCT065 BKN090 OVC110 88 72 95 88 59% 95 30.06 1017.9
12 18:53 SE 10 10.00 Fair CLR 89.1 72 57% 96 30.04 1017.1
12 17:53 SE 8 10.00 Partly Cloudy SCT065 91 72 54% 99 30.02 1016.5
12 16:53 SE 8 10.00 Fair CLR 91.9 72 52% 100 30.01 1016.1
12 15:53 SE 8 10.00 A Few Clouds FEW060 91.9 73 54% 101 30.02 1016.3
12 14:53 SE 6 10.00 A Few Clouds FEW085 93 70 47% 99 30.03 1016.7
12 13:53 NW 7 10.00 A Few Clouds FEW060 93.9 66 93.9 79 40% 97 30.04 1017.1
12 12:53 N 8 10.00 Fair CLR 93 69.1 46% 98 30.04 1017.3
12 11:53 NW 7 10.00 Fair CLR 91.9 71.1 51% 99 30.05 1017.4
12 10:53 N 5 10.00 Fair CLR 90 71.1 54% 96 30.05 1017.4
12 09:53 W 3 10.00 Fair CLR 87.1 72 61% 94 30.04 1017.1
12 08:53 W 3 10.00 Fair CLR 82.9 70 65% 87 30.03 1016.7
12 07:53 W 5 10.00 Fair CLR 79 69.1 81 75 72% 82 30 1015.9
12 06:53 Calm 10.00 Fair CLR 75.9 69.1 79% 77 29.99 1015.3
12 05:53 NW 6 10.00 Fair CLR 78.1 68 71% 80 29.96 1014.4
12 04:53 NW 7 10.00 Fair CLR 78.1 69.1 74% 80 29.95 1014.0
Date Time (edt) Wind (mph) Vis. (mi.) Weather Sky Cond. Air Dwpt Max. Min. Relative Humidity Wind Chill (°F) Heat Index (°F) altimeter (in) sea level (mb) 1 hr 3 hr 6 hr
6 hour
Temperature (ºF) Pressure Precipitation (in)